HETCH HETCHY (HTH)

Elevation: 3870' · TUOLUMNE R basin · Operator: Hetch Hetchy Water and Power

Provisional data, subject to change.
Query executed Saturday at 3:03:15   clock

Select a sensor type for a plot of data.
Note: Reservoir Flows are daily averages.

Earlier

Date RES ELE    STORAGE    RES CHG    OUTFLOW    INFLOW    PPT INC    RAIN    PPTINC4   
 FEET   AF   AF   CFS   CFS   INCHES   INCHES   INCHES  
08/06/2015 -- 320168 -- 460 -- 0.00 22.16 0.00
08/07/2015 -- 319412 -- 467 -- 0.00 22.16 0.00
08/08/2015 -- 318467 -- 459 -- 0.00 22.16 0.00
08/09/2015 -- 317711 -- 451 -- 0.00 22.16 0.00
08/10/2015 -- 316955 -- 453 -- 0.00 22.16 0.00
08/11/2015 -- 316010 -- 448 -- 0.00 22.16 0.00
08/12/2015 -- 315258 -- 434 -- 0.00 22.16 0.00
08/13/2015 -- 314506 -- 435 -- 0.00 22.16 0.00
08/14/2015 -- 313754 -- 437 -- 0.00 22.16 0.00
08/15/2015 -- 312814 -- 452 -- 0.00 22.16 0.00
08/16/2015 -- 312063 -- 433 -- 0.00 22.16 0.00
08/17/2015 -- 311315 -- 437 -- 0.00 22.16 0.00
08/18/2015 -- 310380 -- 449 -- 0.00 22.16 0.00
08/19/2015 -- 309632 -- 441 -- 0.00 22.16 0.00
08/20/2015 -- 308697 -- 441 -- 0.00 22.16 0.00
08/21/2015 -- 307949 -- 432 -- 0.00 22.16 0.00
08/22/2015 -- 307014 -- 432 -- 0.00 22.16 0.00
08/23/2015 -- 306268 -- 449 -- 0.00 22.16 0.00
08/24/2015 -- 305338 -- 454 -- 0.00 22.16 0.00
08/25/2015 -- 304594 -- 442 -- 0.00 22.16 0.00
08/26/2015 -- 303664 -- 447 -- 0.00 22.16 0.00
08/27/2015 -- 302920 -- 424 -- 0.00 22.16 0.00
08/28/2015 -- 301990 -- 462 -- 0.00 22.16 0.00
08/29/2015 -- 301246 -- 436 -- 0.00 22.16 0.00
08/30/2015 -- 300320 -- 436 -- 0.00 22.16 0.00
08/31/2015 -- 299395 -- 441 -- 0.00 22.16 0.00
09/01/2015 -- 298655 -- 435 -- 0.00 22.16 0.00
09/02/2015 -- 297730 -- 459 -- 0.00 22.16 0.00
09/03/2015 -- 296808 -- 432 -- 0.00 22.16 0.00
09/04/2015 -- -- -- -- -- -- -- 0.00
09/05/2015 -- -- -- -- -- -- -- --

Later | Latest

Warning! This data is preliminary and subject to revision.

Show HTH Map | Plot HTH Data | 1 Month HTH Data | Real-Time HTH Data | HTH Info